Location: Unspecified
(40.5250°N, 0.0000°E)
Time: 06:03:12
(UTC+00:00)

Injun/Solrad 3 - Visible Passes

Search period start: 04 April 2026 00:00
Search period end: 14 April 2026 00:00
Orbit: 870 x 986 km, 66.8° (Epoch: 29 March)

Date Brightness Start Highest point End Pass type
(mag) Time Alt. Az. Time Alt. Az. Time Alt. Az.
4 Apr 9.5 01:42:00 29° N 01:42:00 29° N 01:45:09 10° NNE visible
4 Apr 10.1 03:25:51 10° NW 03:27:26 11° NNW 03:29:01 10° NNW visible
5 Apr 10.4 00:08:56 13° NE 00:08:56 13° NE 00:09:36 10° NE visible
5 Apr 9.5 01:52:33 26° NNW 01:52:33 26° NNW 01:55:58 10° NNE visible
6 Apr 10.1 00:19:27 18° NE 00:19:27 18° NE 00:20:51 10° NE visible
6 Apr 9.7 02:03:03 22° NNW 02:03:03 22° NNW 02:06:39 10° N visible
7 Apr 9.9 00:29:56 22° NNE 00:29:56 22° NNE 00:31:56 10° NNE visible
7 Apr 9.9 02:13:32 17° NW 02:13:32 17° NW 02:17:10 10° N visible
8 Apr 9.8 00:40:22 25° NNE 00:40:22 25° NNE 00:42:54 10° NNE visible
8 Apr 10.1 02:23:58 12° NW 02:24:54 12° NNW 02:27:17 10° N visible
9 Apr 9.7 00:50:47 25° N 00:50:47 25° N 00:53:44 10° NNE visible
9 Apr 10.2 23:17:32 15° NE 23:17:32 15° NE 23:18:29 10° NE visible
10 Apr 9.8 01:01:08 23° NNW 01:01:08 23° NNW 01:04:29 10° N visible
10 Apr 9.9 23:27:51 20° NNE 23:27:51 20° NNE 23:29:37 10° NNE visible
11 Apr 9.9 01:11:28 18° NNW 01:11:28 18° NNW 01:15:03 10° N visible
11 Apr 9.7 23:38:08 25° NNE 23:38:08 25° NNE 23:40:37 10° NNE visible
12 Apr 10.2 01:21:43 13° NW 01:22:23 14° NW 01:25:21 10° N visible
12 Apr 9.6 23:48:19 28° N 23:48:19 28° N 23:51:30 10° NNE visible
13 Apr 9.9 22:14:51 16° NE 22:14:51 16° NE 22:16:06 10° NE visible
